Time,TemperatureF,DewpointF,PressureIn,WindDirection,WindDirectionDegrees,WindSpeedMPH,WindSpeedGustMPH,Humidity,HourlyPrecipIn,Conditions,Clouds,dailyrainin,SoftwareType,DateUTC
2013-06-05 00:00:00,61.5,53.5,30.13,NW,306,0.0,16.0,75,0.00,,,0.00,Wunderground v.1.15,2013-06-05 04:00:00,
2013-06-05 00:05:00,61.4,53.4,30.13,NW,306,0.0,16.0,75,0.00,,,0.00,Wunderground v.1.15,2013-06-05 04:05:00,
2013-06-05 00:10:00,61.0,53.0,30.13,NW,306,0.0,16.0,75,0.00,,,0.00,Wunderground v.1.15,2013-06-05 04:10:00,
2013-06-05 00:15:00,60.7,53.8,30.13,NW,306,0.0,16.0,78,0.00,,,0.00,Wunderground v.1.15,2013-06-05 04:15:00,
2013-06-05 00:20:00,60.5,53.6,30.13,NW,306,0.0,16.0,78,0.00,,,0.00,Wunderground v.1.15,2013-06-05 04:20:00,
2013-06-05 00:25:00,60.4,53.2,30.13,NW,306,0.0,16.0,77,0.00,,,0.00,Wunderground v.1.15,2013-06-05 04:25:00,
2013-06-05 00:30:00,60.3,53.8,30.13,NW,306,0.0,16.0,79,0.00,,,0.00,Wunderground v.1.15,2013-06-05 04:30:00,
2013-06-05 00:35:00,60.0,53.5,30.13,NW,306,0.0,16.0,79,0.00,,,0.00,Wunderground v.1.15,2013-06-05 04:35:00,
2013-06-05 00:40:00,59.8,53.3,30.13,NW,306,0.0,16.0,79,0.00,,,0.00,Wunderground v.1.15,2013-06-05 04:40:00,
2013-06-05 00:45:00,59.7,53.2,30.13,NW,306,0.0,16.0,79,0.00,,,0.00,Wunderground v.1.15,2013-06-05 04:45:00,
2013-06-05 00:50:00,59.8,53.3,30.13,NW,306,0.0,16.0,79,0.00,,,0.00,Wunderground v.1.15,2013-06-05 04:50:00,
2013-06-05 00:55:00,59.8,53.6,30.13,NW,306,0.0,16.0,80,0.00,,,0.00,Wunderground v.1.15,2013-06-05 04:55:00,
2013-06-05 01:05:00,59.6,53.4,30.13,NW,306,0.0,16.0,80,0.00,,,0.00,Wunderground v.1.15,2013-06-05 05:05:00,
2013-06-05 01:10:00,59.4,53.2,30.13,NW,306,0.0,16.0,80,0.00,,,0.00,Wunderground v.1.15,2013-06-05 05:10:00,
2013-06-05 01:15:00,59.3,53.5,30.13,NW,306,0.0,16.0,81,0.00,,,0.00,Wunderground v.1.15,2013-06-05 05:15:00,
2013-06-05 01:20:00,59.1,53.3,30.13,NW,306,0.0,16.0,81,0.00,,,0.00,Wunderground v.1.15,2013-06-05 05:20:00,
2013-06-05 01:30:00,59.0,53.2,30.13,NW,306,0.0,16.0,81,0.00,,,0.00,Wunderground v.1.15,2013-06-05 05:30:00,
2013-06-05 01:35:00,58.9,53.1,30.13,NW,306,0.0,16.0,81,0.00,,,0.00,Wunderground v.1.15,2013-06-05 05:35:00,
2013-06-05 01:40:00,58.7,53.2,30.13,NW,306,0.0,16.0,82,0.00,,,0.00,Wunderground v.1.15,2013-06-05 05:40:00,
2013-06-05 01:45:00,58.7,53.5,30.13,NW,306,0.0,16.0,83,0.00,,,0.00,Wunderground v.1.15,2013-06-05 05:45:00,
2013-06-05 01:50:00,58.7,54.2,30.13,NW,306,0.0,16.0,85,0.00,,,0.00,Wunderground v.1.15,2013-06-05 05:50:00,
2013-06-05 02:00:00,58.5,54.3,30.13,NW,306,0.0,16.0,86,0.00,,,0.00,Wunderground v.1.15,2013-06-05 06:00:00,
2013-06-05 02:05:00,58.5,55.0,30.13,NW,306,0.0,16.0,88,0.00,,,0.00,Wunderground v.1.15,2013-06-05 06:05:00,
2013-06-05 04:40:00,56.4,53.8,30.14,NW,306,0.0,16.0,91,0.00,,,0.00,Wunderground v.1.15,2013-06-05 08:40:00,
2013-06-05 04:45:00,56.2,53.6,30.15,NW,306,0.0,16.0,91,0.00,,,0.00,Wunderground v.1.15,2013-06-05 08:45:00,
2013-06-05 04:50:00,56.1,53.5,30.15,NW,306,0.0,16.0,91,0.00,,,0.00,Wunderground v.1.15,2013-06-05 08:50:00,
2013-06-05 05:00:00,55.8,53.5,30.15,NW,306,0.0,16.0,92,0.00,,,0.00,Wunderground v.1.15,2013-06-05 09:00:00,
2013-06-05 05:05:00,55.7,53.4,30.15,NW,306,0.0,16.0,92,0.00,,,0.00,Wunderground v.1.15,2013-06-05 09:05:00,
2013-06-05 05:10:00,55.7,53.4,30.15,NW,306,0.0,16.0,92,0.00,,,0.00,Wunderground v.1.15,2013-06-05 09:10:00,
2013-06-05 05:15:00,55.7,53.4,30.15,NW,306,0.0,16.0,92,0.00,,,0.00,Wunderground v.1.15,2013-06-05 09:15:00,
2013-06-05 05:25:00,55.9,54.2,30.16,NW,306,0.0,16.0,94,0.00,,,0.00,Wunderground v.1.15,2013-06-05 09:25:00,
2013-06-05 05:30:00,55.7,54.0,30.16,NW,306,0.0,16.0,94,0.00,,,0.00,Wunderground v.1.15,2013-06-05 09:30:00,
2013-06-05 05:35:00,55.5,53.8,30.16,NW,306,0.0,16.0,94,0.00,,,0.00,Wunderground v.1.15,2013-06-05 09:35:00,
2013-06-05 05:40:00,55.4,53.7,30.16,NW,306,0.0,16.0,94,0.00,,,0.00,Wunderground v.1.15,2013-06-05 09:40:00,
2013-06-05 05:45:00,55.1,53.4,30.16,NW,306,0.0,16.0,94,0.00,,,0.00,Wunderground v.1.15,2013-06-05 09:45:00,
2013-06-05 05:55:00,54.9,53.2,30.16,NW,306,0.0,16.0,94,0.00,,,0.00,Wunderground v.1.15,2013-06-05 09:55:00,
2013-06-05 06:00:00,54.9,53.5,30.16,NW,306,0.0,16.0,95,0.00,,,0.00,Wunderground v.1.15,2013-06-05 10:00:00,
2013-06-05 06:05:00,55.0,53.6,30.16,NW,306,0.0,16.0,95,0.00,,,0.00,Wunderground v.1.15,2013-06-05 10:05:00,
2013-06-05 06:10:00,55.2,54.1,30.16,NW,306,0.0,16.0,96,0.00,,,0.00,Wunderground v.1.15,2013-06-05 10:10:00,
2013-06-05 06:15:00,55.5,54.4,30.17,NW,306,0.0,16.0,96,0.00,,,0.00,Wunderground v.1.15,2013-06-05 10:15:00,
2013-06-05 06:25:00,56.1,55.3,30.17,NW,306,0.0,16.0,97,0.00,,,0.00,Wunderground v.1.15,2013-06-05 10:25:00,
2013-06-05 06:30:00,56.3,55.5,30.17,NW,306,0.0,16.0,97,0.00,,,0.00,Wunderground v.1.15,2013-06-05 10:30:00,
2013-06-05 06:35:00,56.5,55.7,30.17,NW,306,0.0,16.0,97,0.00,,,0.00,Wunderground v.1.15,2013-06-05 10:35:00,
2013-06-05 06:40:00,56.7,55.9,30.17,NW,306,0.0,16.0,97,0.00,,,0.00,Wunderground v.1.15,2013-06-05 10:40:00,
2013-06-05 06:45:00,56.8,56.0,30.17,NW,306,0.0,16.0,97,0.00,,,0.00,Wunderground v.1.15,2013-06-05 10:45:00,
2013-06-05 06:55:00,57.2,56.4,30.17,NW,306,0.0,16.0,97,0.00,,,0.00,Wunderground v.1.15,2013-06-05 10:55:00,
2013-06-05 07:00:00,57.5,56.7,30.17,NW,306,0.0,16.0,97,0.00,,,0.00,Wunderground v.1.15,2013-06-05 11:00:00,
2013-06-05 07:05:00,57.8,56.7,30.17,NW,306,0.0,16.0,96,0.00,,,0.00,Wunderground v.1.15,2013-06-05 11:05:00,
2013-06-05 07:10:00,58.3,57.2,30.17,NW,306,0.0,16.0,96,0.00,,,0.00,Wunderground v.1.15,2013-06-05 11:10:00,
2013-06-05 07:20:00,59.0,57.6,30.18,NW,306,0.0,16.0,95,0.00,,,0.00,Wunderground v.1.15,2013-06-05 11:20:00,
2013-06-05 07:25:00,60.3,58.9,30.19,NW,306,0.0,16.0,95,0.00,,,0.00,Wunderground v.1.15,2013-06-05 11:25:00,
2013-06-05 07:30:00,61.3,59.0,30.19,NW,306,0.0,16.0,92,0.00,,,0.00,Wunderground v.1.15,2013-06-05 11:30:00,
2013-06-05 07:35:00,61.9,58.9,30.19,NW,306,0.0,16.0,90,0.00,,,0.00,Wunderground v.1.15,2013-06-05 11:35:00,
2013-06-05 07:45:00,63.4,59.5,30.19,NW,306,0.0,16.0,87,0.00,,,0.00,Wunderground v.1.15,2013-06-05 11:45:00,
2013-06-05 07:50:00,64.3,59.4,30.18,NW,306,0.0,16.0,84,0.00,,,0.00,Wunderground v.1.15,2013-06-05 11:50:00,
2013-06-05 07:55:00,64.5,58.2,30.18,NW,307,0.0,16.0,80,0.00,,,0.00,Wunderground v.1.15,2013-06-05 11:55:00,
2013-06-05 08:00:00,65.2,58.2,30.18,NW,308,0.0,16.0,78,0.00,,,0.00,Wunderground v.1.15,2013-06-05 12:00:00,
2013-06-05 08:05:00,65.8,58.0,30.18,ESE,111,0.0,16.0,76,0.00,,,0.00,Wunderground v.1.15,2013-06-05 12:05:00,
2013-06-05 08:15:00,66.9,58.3,30.18,ESE,110,0.0,16.0,74,0.00,,,0.00,Wunderground v.1.15,2013-06-05 12:15:00,
2013-06-05 08:20:00,67.2,57.9,30.18,ESE,110,1.0,1.0,72,0.00,,,0.00,Wunderground v.1.15,2013-06-05 12:20:00,
2013-06-05 08:25:00,67.3,58.3,30.19,ESE,111,1.0,16.0,73,0.00,,,0.00,Wunderground v.1.15,2013-06-05 12:25:00,
2013-06-05 08:30:00,67.8,57.7,30.19,ESE,111,0.0,16.0,70,0.00,,,0.00,Wunderground v.1.15,2013-06-05 12:30:00,
2013-06-05 08:35:00,68.3,57.7,30.19,ESE,110,0.0,16.0,69,0.00,,,0.00,Wunderground v.1.15,2013-06-05 12:35:00,
2013-06-05 08:45:00,68.8,57.4,30.19,ESE,110,1.0,16.0,67,0.00,,,0.00,Wunderground v.1.15,2013-06-05 12:45:00,
2013-06-05 08:50:00,69.4,57.5,30.19,ESE,110,1.0,1.0,66,0.00,,,0.00,Wunderground v.1.15,2013-06-05 12:50:00,
2013-06-05 08:55:00,69.9,58.4,30.18,ESE,110,0.0,16.0,67,0.00,,,0.00,Wunderground v.1.15,2013-06-05 12:55:00,
2013-06-05 09:00:00,69.7,57.8,30.18,ESE,110,1.0,1.0,66,0.00,,,0.00,Wunderground v.1.15,2013-06-05 13:00:00,
2013-06-05 09:05:00,70.0,57.7,30.18,ESE,111,1.0,16.0,65,0.00,,,0.00,Wunderground v.1.15,2013-06-05 13:05:00,
2013-06-05 09:15:00,70.7,58.8,30.18,ESE,110,1.0,16.0,66,0.00,,,0.00,Wunderground v.1.15,2013-06-05 13:15:00,
2013-06-05 09:20:00,70.4,58.5,30.18,East,95,1.0,16.0,66,0.00,,,0.00,Wunderground v.1.15,2013-06-05 13:20:00,
2013-06-05 09:25:00,70.7,58.4,30.18,East,96,1.0,16.0,65,0.00,,,0.00,Wunderground v.1.15,2013-06-05 13:25:00,
2013-06-05 09:30:00,70.3,58.4,30.19,East,101,2.0,16.0,66,0.00,,,0.00,Wunderground v.1.15,2013-06-05 13:30:00,
2013-06-05 09:40:00,70.4,59.3,30.19,East,101,1.0,1.0,68,0.00,,,0.00,Wunderground v.1.15,2013-06-05 13:40:00,
2013-06-05 09:45:00,71.3,61.0,30.19,East,101,0.0,16.0,70,0.00,,,0.00,Wunderground v.1.15,2013-06-05 13:45:00,
2013-06-05 09:50:00,72.1,59.7,30.18,East,101,0.0,16.0,65,0.00,,,0.00,Wunderground v.1.15,2013-06-05 13:50:00,
2013-06-05 09:55:00,72.0,60.0,30.18,ESE,111,1.0,16.0,66,0.00,,,0.00,Wunderground v.1.15,2013-06-05 13:55:00,
2013-06-05 10:05:00,71.7,60.2,30.18,East,95,1.0,16.0,67,0.00,,,0.00,Wunderground v.1.15,2013-06-05 14:05:00,
2013-06-05 10:10:00,72.1,60.1,30.18,East,95,1.0,1.0,66,0.00,,,0.00,Wunderground v.1.15,2013-06-05 14:10:00,
2013-06-05 10:15:00,72.6,61.0,30.18,East,95,0.0,16.0,67,0.00,,,0.00,Wunderground v.1.15,2013-06-05 14:15:00,
2013-06-05 10:20:00,73.5,61.0,30.18,East,95,0.0,16.0,65,0.00,,,0.00,Wunderground v.1.15,2013-06-05 14:20:00,
2013-06-05 10:25:00,74.0,60.6,30.17,NNW,334,0.0,16.0,63,0.00,,,0.00,Wunderground v.1.15,2013-06-05 14:25:00,
2013-06-05 10:35:00,74.8,60.9,30.17,ENE,78,1.0,16.0,62,0.00,,,0.00,Wunderground v.1.15,2013-06-05 14:35:00,
2013-06-05 10:40:00,74.0,60.2,30.16,ENE,78,1.0,1.0,62,0.00,,,0.00,Wunderground v.1.15,2013-06-05 14:40:00,
2013-06-05 10:45:00,74.1,61.1,30.16,East,94,1.0,16.0,64,0.00,,,0.00,Wunderground v.1.15,2013-06-05 14:45:00,
2013-06-05 10:50:00,73.7,58.9,30.16,East,96,2.0,16.0,60,0.00,,,0.00,Wunderground v.1.15,2013-06-05 14:50:00,
2013-06-05 10:55:00,73.5,57.3,30.16,East,101,2.0,16.0,57,0.00,,,0.00,Wunderground v.1.15,2013-06-05 14:55:00,
2013-06-05 11:05:00,74.0,56.3,30.16,East,96,2.0,16.0,54,0.00,,,0.00,Wunderground v.1.15,2013-06-05 15:05:00,
2013-06-05 11:10:00,74.2,54.4,30.16,East,96,2.0,16.0,50,0.00,,,0.00,Wunderground v.1.15,2013-06-05 15:10:00,
2013-06-05 11:15:00,73.5,54.8,30.16,East,96,3.0,16.0,52,0.00,,,0.00,Wunderground v.1.15,2013-06-05 15:15:00,
2013-06-05 11:20:00,73.2,57.1,30.16,East,96,3.0,3.0,57,0.00,,,0.00,Wunderground v.1.15,2013-06-05 15:20:00,
2013-06-05 11:30:00,73.7,56.5,30.15,ESE,111,2.0,2.0,55,0.00,,,0.00,Wunderground v.1.15,2013-06-05 15:30:00,
2013-06-05 11:35:00,74.6,57.9,30.16,South,175,2.0,4.0,56,0.00,,,0.00,Wunderground v.1.15,2013-06-05 15:35:00,
2013-06-05 11:40:00,74.7,58.9,30.16,ENE,76,2.0,2.0,58,0.00,,,0.00,Wunderground v.1.15,2013-06-05 15:40:00,
2013-06-05 11:45:00,74.9,57.6,30.15,ENE,74,3.0,4.0,55,0.00,,,0.00,Wunderground v.1.15,2013-06-05 15:45:00,
2013-06-05 11:55:00,75.0,57.7,30.16,ESE,102,3.0,16.0,55,0.00,,,0.00,Wunderground v.1.15,2013-06-05 15:55:00,
2013-06-05 12:00:00,74.9,58.6,30.15,SSW,200,2.0,16.0,57,0.00,,,0.00,Wunderground v.1.15,2013-06-05 16:00:00,
2013-06-05 12:05:00,75.0,57.2,30.15,East,98,3.0,16.0,54,0.00,,,0.00,Wunderground v.1.15,2013-06-05 16:05:00,
2013-06-05 12:10:00,75.0,57.7,30.15,East,85,3.0,3.0,55,0.00,,,0.00,Wunderground v.1.15,2013-06-05 16:10:00,
2013-06-05 12:15:00,74.9,56.6,30.15,East,82,3.0,16.0,53,0.00,,,0.00,Wunderground v.1.15,2013-06-05 16:15:00,
2013-06-05 12:25:00,74.9,55.0,30.15,SE,125,3.0,16.0,50,0.00,,,0.00,Wunderground v.1.15,2013-06-05 16:25:00,
2013-06-05 12:30:00,74.8,56.0,30.15,East,90,3.0,16.0,52,0.00,,,0.00,Wunderground v.1.15,2013-06-05 16:30:00,
2013-06-05 12:35:00,75.1,55.2,30.15,ENE,76,4.0,16.0,50,0.00,,,0.00,Wunderground v.1.15,2013-06-05 16:35:00,
2013-06-05 12:40:00,75.2,56.9,30.14,ENE,71,4.0,4.0,53,0.00,,,0.00,Wunderground v.1.15,2013-06-05 16:40:00,
2013-06-05 12:50:00,75.7,55.7,30.14,East,84,3.0,3.0,50,0.00,,,0.00,Wunderground v.1.15,2013-06-05 16:50:00,
2013-06-05 12:55:00,76.1,56.1,30.14,East,84,3.0,16.0,50,0.00,,,0.00,Wunderground v.1.15,2013-06-05 16:55:00,
2013-06-05 13:00:00,76.6,57.1,30.14,ESE,113,2.0,16.0,51,0.00,,,0.00,Wunderground v.1.15,2013-06-05 17:00:00,
2013-06-05 13:05:00,76.6,56.6,30.14,East,99,3.0,16.0,50,0.00,,,0.00,Wunderground v.1.15,2013-06-05 17:05:00,
2013-06-05 13:10:00,76.6,57.1,30.13,ENE,75,3.0,16.0,51,0.00,,,0.00,Wunderground v.1.15,2013-06-05 17:10:00,
2013-06-05 13:20:00,75.7,56.8,30.13,SW,224,4.0,4.0,52,0.00,,,0.00,Wunderground v.1.15,2013-06-05 17:20:00,
2013-06-05 13:25:00,75.6,55.6,30.13,East,95,4.0,7.0,50,0.00,,,0.00,Wunderground v.1.15,2013-06-05 17:25:00,
2013-06-05 13:30:00,75.8,56.4,30.13,NNE,28,4.0,4.0,51,0.00,,,0.00,Wunderground v.1.15,2013-06-05 17:30:00,
2013-06-05 13:35:00,76.8,56.2,30.13,East,81,3.0,5.0,49,0.00,,,0.00,Wunderground v.1.15,2013-06-05 17:35:00,
2013-06-05 13:45:00,76.5,56.5,30.13,East,92,3.0,4.0,50,0.00,,,0.00,Wunderground v.1.15,2013-06-05 17:45:00,
2013-06-05 13:50:00,76.8,56.2,30.13,East,91,3.0,3.0,49,0.00,,,0.00,Wunderground v.1.15,2013-06-05 17:50:00,
2013-06-05 13:55:00,77.3,56.1,30.13,East,92,2.0,16.0,48,0.00,,,0.00,Wunderground v.1.15,2013-06-05 17:55:00,
2013-06-05 14:00:00,78.0,57.9,30.13,East,93,0.0,16.0,50,0.00,,,0.00,Wunderground v.1.15,2013-06-05 18:00:00,
2013-06-05 14:10:00,76.9,57.4,30.12,ENE,74,2.0,16.0,51,0.00,,,0.00,Wunderground v.1.15,2013-06-05 18:10:00,
2013-06-05 14:15:00,77.2,57.1,30.13,ENE,61,2.0,16.0,50,0.00,,,0.00,Wunderground v.1.15,2013-06-05 18:15:00,
2013-06-05 14:20:00,77.3,57.2,30.12,East,94,1.0,16.0,50,0.00,,,0.00,Wunderground v.1.15,2013-06-05 18:20:00,
2013-06-05 14:25:00,77.3,57.2,30.11,South,188,1.0,16.0,50,0.00,,,0.00,Wunderground v.1.15,2013-06-05 18:25:00,
2013-06-05 14:30:00,78.0,57.3,30.11,SW,233,1.0,1.0,49,0.00,,,0.00,Wunderground v.1.15,2013-06-05 18:30:00,
2013-06-05 14:40:00,79.6,59.3,30.11,SW,234,0.0,16.0,50,0.00,,,0.00,Wunderground v.1.15,2013-06-05 18:40:00,
2013-06-05 14:45:00,79.7,58.8,30.11,SSE,161,1.0,16.0,49,0.00,,,0.00,Wunderground v.1.15,2013-06-05 18:45:00,
2013-06-05 14:50:00,79.7,58.8,30.10,ESE,113,1.0,16.0,49,0.00,,,0.00,Wunderground v.1.15,2013-06-05 18:50:00,
2013-06-05 14:55:00,79.7,58.8,30.10,ENE,59,1.0,16.0,49,0.00,,,0.00,Wunderground v.1.15,2013-06-05 18:55:00,
2013-06-05 15:00:00,79.8,59.5,30.10,East,89,1.0,16.0,50,0.00,,,0.00,Wunderground v.1.15,2013-06-05 19:00:00,
2013-06-05 15:10:00,78.7,59.6,30.10,ENE,70,3.0,3.0,52,0.00,,,0.00,Wunderground v.1.15,2013-06-05 19:10:00,
2013-06-05 15:15:00,78.3,59.2,30.10,SE,144,3.0,16.0,52,0.00,,,0.00,Wunderground v.1.15,2013-06-05 19:15:00,
2013-06-05 15:20:00,78.2,59.7,30.10,East,82,3.0,3.0,53,0.00,,,0.00,Wunderground v.1.15,2013-06-05 19:20:00,
2013-06-05 15:25:00,77.8,59.8,30.10,East,87,3.0,6.0,54,0.00,,,0.00,Wunderground v.1.15,2013-06-05 19:25:00,
2013-06-05 15:30:00,77.2,59.3,30.10,ESE,105,4.0,4.0,54,0.00,,,0.00,Wunderground v.1.15,2013-06-05 19:30:00,
2013-06-05 15:40:00,77.6,61.2,30.10,ESE,106,2.0,16.0,57,0.00,,,0.00,Wunderground v.1.15,2013-06-05 19:40:00,
2013-06-05 15:45:00,78.3,61.3,30.09,East,94,2.0,16.0,56,0.00,,,0.00,Wunderground v.1.15,2013-06-05 19:45:00,
2013-06-05 15:50:00,77.7,60.8,30.10,South,174,3.0,3.0,56,0.00,,,0.00,Wunderground v.1.15,2013-06-05 19:50:00,
2013-06-05 16:00:00,77.6,60.7,30.10,ESE,111,1.0,1.0,56,0.00,,,0.00,Wunderground v.1.15,2013-06-05 20:00:00,
2013-06-05 16:05:00,78.1,60.6,30.10,SSW,205,1.0,16.0,55,0.00,,,0.00,Wunderground v.1.15,2013-06-05 20:05:00,
2013-06-05 16:10:00,78.9,60.3,30.10,SW,217,1.0,1.0,53,0.00,,,0.00,Wunderground v.1.15,2013-06-05 20:10:00,
2013-06-05 16:15:00,78.8,61.3,30.09,East,92,1.0,2.0,55,0.00,,,0.00,Wunderground v.1.15,2013-06-05 20:15:00,
2013-06-05 16:20:00,78.4,60.9,30.09,ENE,61,1.0,1.0,55,0.00,,,0.00,Wunderground v.1.15,2013-06-05 20:20:00,
2013-06-05 16:30:00,77.9,60.4,30.09,East,84,2.0,16.0,55,0.00,,,0.00,Wunderground v.1.15,2013-06-05 20:30:00,
2013-06-05 16:35:00,77.6,61.2,30.09,East,83,2.0,16.0,57,0.00,,,0.00,Wunderground v.1.15,2013-06-05 20:35:00,
2013-06-05 16:40:00,77.4,61.5,30.10,East,97,2.0,2.0,58,0.00,,,0.00,Wunderground v.1.15,2013-06-05 20:40:00,
2013-06-05 16:45:00,77.1,60.7,30.10,East,92,2.0,6.0,57,0.00,,,0.00,Wunderground v.1.15,2013-06-05 20:45:00,
2013-06-05 16:50:00,76.8,60.9,30.10,East,96,3.0,3.0,58,0.00,,,0.00,Wunderground v.1.15,2013-06-05 20:50:00,
2013-06-05 17:00:00,76.5,60.6,30.09,SE,130,3.0,16.0,58,0.00,,,0.00,Wunderground v.1.15,2013-06-05 21:00:00,
2013-06-05 17:05:00,76.9,61.0,30.09,SE,143,2.0,16.0,58,0.00,,,0.00,Wunderground v.1.15,2013-06-05 21:05:00,
2013-06-05 17:10:00,77.6,60.7,30.09,East,92,2.0,16.0,56,0.00,,,0.00,Wunderground v.1.15,2013-06-05 21:10:00,
2013-06-05 17:15:00,77.5,60.6,30.10,ENE,78,3.0,16.0,56,0.00,,,0.00,Wunderground v.1.15,2013-06-05 21:15:00,
2013-06-05 17:20:00,77.3,60.9,30.10,South,182,2.0,2.0,57,0.00,,,0.00,Wunderground v.1.15,2013-06-05 21:20:00,
2013-06-05 17:30:00,77.2,60.8,30.09,East,84,2.0,16.0,57,0.00,,,0.00,Wunderground v.1.15,2013-06-05 21:30:00,
2013-06-05 17:35:00,77.0,61.1,30.09,East,79,4.0,16.0,58,0.00,,,0.00,Wunderground v.1.15,2013-06-05 21:35:00,
2013-06-05 17:40:00,76.9,61.0,30.09,East,95,4.0,4.0,58,0.00,,,0.00,Wunderground v.1.15,2013-06-05 21:40:00,
2013-06-05 17:45:00,77.2,60.8,30.09,East,91,2.0,16.0,57,0.00,,,0.00,Wunderground v.1.15,2013-06-05 21:45:00,
2013-06-05 17:55:00,78.1,61.1,30.09,East,83,1.0,16.0,56,0.00,,,0.00,Wunderground v.1.15,2013-06-05 21:55:00,
2013-06-05 18:00:00,77.5,60.1,30.09,ENE,76,2.0,16.0,55,0.00,,,0.00,Wunderground v.1.15,2013-06-05 22:00:00,
2013-06-05 18:05:00,77.1,60.2,30.08,East,91,3.0,16.0,56,0.00,,,0.00,Wunderground v.1.15,2013-06-05 22:05:00,
2013-06-05 18:10:00,77.0,60.1,30.09,East,94,2.0,16.0,56,0.00,,,0.00,Wunderground v.1.15,2013-06-05 22:10:00,
2013-06-05 18:20:00,76.8,59.9,30.08,ESE,104,2.0,16.0,56,0.00,,,0.00,Wunderground v.1.15,2013-06-05 22:20:00,
2013-06-05 18:25:00,76.7,59.8,30.08,East,82,2.0,16.0,56,0.00,,,0.00,Wunderground v.1.15,2013-06-05 22:25:00,
2013-06-05 18:30:00,76.7,59.3,30.08,ESE,115,2.0,2.0,55,0.00,,,0.00,Wunderground v.1.15,2013-06-05 22:30:00,
2013-06-05 18:35:00,76.8,59.4,30.08,East,92,2.0,16.0,55,0.00,,,0.00,Wunderground v.1.15,2013-06-05 22:35:00,
2013-06-05 18:40:00,76.7,59.8,30.08,East,83,2.0,16.0,56,0.00,,,0.00,Wunderground v.1.15,2013-06-05 22:40:00,
2013-06-05 18:50:00,76.5,59.1,30.08,East,88,3.0,16.0,55,0.00,,,0.00,Wunderground v.1.15,2013-06-05 22:50:00,
2013-06-05 18:55:00,76.3,58.9,30.08,East,97,3.0,16.0,55,0.00,,,0.00,Wunderground v.1.15,2013-06-05 22:55:00,
2013-06-05 19:00:00,76.3,59.4,30.08,ESE,103,2.0,2.0,56,0.00,,,0.00,Wunderground v.1.15,2013-06-05 23:00:00,
2013-06-05 19:05:00,76.3,58.9,30.07,East,98,1.0,3.0,55,0.00,,,0.00,Wunderground v.1.15,2013-06-05 23:05:00,
2013-06-05 19:10:00,76.4,59.5,30.07,ENE,57,2.0,2.0,56,0.00,,,0.00,Wunderground v.1.15,2013-06-05 23:10:00,
2013-06-05 19:20:00,76.2,58.9,30.08,ESE,119,2.0,2.0,55,0.00,,,0.00,Wunderground v.1.15,2013-06-05 23:20:00,
2013-06-05 19:25:00,76.0,58.7,30.07,ESE,117,2.0,16.0,55,0.00,,,0.00,Wunderground v.1.15,2013-06-05 23:25:00,
2013-06-05 19:30:00,75.8,58.5,30.07,South,175,2.0,16.0,55,0.00,,,0.00,Wunderground v.1.15,2013-06-05 23:30:00,
2013-06-05 19:35:00,75.7,58.4,30.07,ENE,71,2.0,16.0,55,0.00,,,0.00,Wunderground v.1.15,2013-06-05 23:35:00,
2013-06-05 19:40:00,75.6,58.3,30.07,SE,129,1.0,16.0,55,0.00,,,0.00,Wunderground v.1.15,2013-06-05 23:40:00,
2013-06-05 19:50:00,75.3,58.0,30.07,ENE,78,2.0,2.0,55,0.00,,,0.00,Wunderground v.1.15,2013-06-05 23:50:00,
2013-06-05 19:55:00,75.2,58.4,30.07,East,86,2.0,4.0,56,0.00,,,0.00,Wunderground v.1.15,2013-06-05 23:55:00,
2013-06-05 20:00:00,75.0,58.2,30.07,East,83,2.0,16.0,56,0.00,,,0.00,Wunderground v.1.15,2013-06-06 00:00:00,
2013-06-05 20:10:00,74.8,58.1,30.07,ENE,67,2.0,2.0,56,0.00,,,0.00,Wunderground v.1.15,2013-06-06 00:10:00,
2013-06-05 20:15:00,74.6,57.9,30.07,East,92,2.0,4.0,56,0.00,,,0.00,Wunderground v.1.15,2013-06-06 00:15:00,
2013-06-05 20:20:00,74.4,57.7,30.07,East,83,3.0,3.0,56,0.00,,,0.00,Wunderground v.1.15,2013-06-06 00:20:00,
2013-06-05 20:25:00,74.2,58.0,30.07,East,80,3.0,5.0,57,0.00,,,0.00,Wunderground v.1.15,2013-06-06 00:25:00,
2013-06-05 20:30:00,74.2,58.0,30.07,ENE,63,4.0,4.0,57,0.00,,,0.00,Wunderground v.1.15,2013-06-06 00:30:00,
2013-06-05 20:40:00,73.9,58.2,30.07,East,96,1.0,1.0,58,0.00,,,0.00,Wunderground v.1.15,2013-06-06 00:40:00,
2013-06-05 20:45:00,73.7,58.5,30.07,East,86,1.0,16.0,59,0.00,,,0.00,Wunderground v.1.15,2013-06-06 00:45:00,
2013-06-05 20:50:00,73.5,58.3,30.07,East,91,2.0,16.0,59,0.00,,,0.00,Wunderground v.1.15,2013-06-06 00:50:00,
2013-06-05 20:55:00,73.3,58.1,30.07,East,82,1.0,16.0,59,0.00,,,0.00,Wunderground v.1.15,2013-06-06 00:55:00,
2013-06-05 21:00:00,73.1,57.9,30.07,ENE,71,2.0,2.0,59,0.00,,,0.00,Wunderground v.1.15,2013-06-06 01:00:00,
2013-06-05 21:10:00,72.8,58.1,30.07,ENE,74,0.0,16.0,60,0.00,,,0.00,Wunderground v.1.15,2013-06-06 01:10:00,
2013-06-05 21:15:00,72.6,57.9,30.07,East,96,1.0,16.0,60,0.00,,,0.00,Wunderground v.1.15,2013-06-06 01:15:00,
2013-06-05 21:20:00,72.4,58.2,30.07,ENE,75,1.0,1.0,61,0.00,,,0.00,Wunderground v.1.15,2013-06-06 01:20:00,
2013-06-05 21:25:00,72.3,58.1,30.07,East,92,0.0,16.0,61,0.00,,,0.00,Wunderground v.1.15,2013-06-06 01:25:00,
2013-06-05 21:30:00,72.2,58.0,30.07,South,172,0.0,16.0,61,0.00,,,0.00,Wunderground v.1.15,2013-06-06 01:30:00,
2013-06-05 21:40:00,71.9,58.2,30.08,ENE,78,0.0,16.0,62,0.00,,,0.00,Wunderground v.1.15,2013-06-06 01:40:00,
2013-06-05 21:45:00,71.7,58.0,30.08,NNE,15,1.0,16.0,62,0.00,,,0.00,Wunderground v.1.15,2013-06-06 01:45:00,
2013-06-05 21:50:00,71.6,58.3,30.08,ESE,106,1.0,16.0,63,0.00,,,0.00,Wunderground v.1.15,2013-06-06 01:50:00,
2013-06-05 21:55:00,71.5,58.2,30.08,NE,51,2.0,16.0,63,0.00,,,0.00,Wunderground v.1.15,2013-06-06 01:55:00,
2013-06-05 22:05:00,71.1,57.9,30.08,SSW,204,1.0,16.0,63,0.00,,,0.00,Wunderground v.1.15,2013-06-06 02:05:00,
2013-06-05 22:10:00,70.9,58.1,30.09,ENE,76,1.0,16.0,64,0.00,,,0.00,Wunderground v.1.15,2013-06-06 02:10:00,
2013-06-05 22:15:00,70.7,57.9,30.09,East,94,1.0,16.0,64,0.00,,,0.00,Wunderground v.1.15,2013-06-06 02:15:00,
2013-06-05 22:20:00,70.4,58.1,30.09,ESE,104,1.0,16.0,65,0.00,,,0.00,Wunderground v.1.15,2013-06-06 02:20:00,
2013-06-05 22:30:00,70.1,57.8,30.09,SE,141,1.0,1.0,65,0.00,,,0.00,Wunderground v.1.15,2013-06-06 02:30:00,
2013-06-05 22:35:00,69.9,58.0,30.09,ENE,68,0.0,16.0,66,0.00,,,0.00,Wunderground v.1.15,2013-06-06 02:35:00,
2013-06-05 22:40:00,69.7,57.8,30.09,ENE,74,1.0,16.0,66,0.00,,,0.00,Wunderground v.1.15,2013-06-06 02:40:00,
2013-06-05 22:45:00,69.6,57.7,30.09,SSW,194,1.0,16.0,66,0.00,,,0.00,Wunderground v.1.15,2013-06-06 02:45:00,
2013-06-05 22:50:00,69.4,58.0,30.09,South,191,1.0,1.0,67,0.00,,,0.00,Wunderground v.1.15,2013-06-06 02:50:00,
2013-06-05 23:00:00,69.1,57.3,30.10,NNE,13,1.0,16.0,66,0.00,,,0.00,Wunderground v.1.15,2013-06-06 03:00:00,
2013-06-05 23:05:00,69.0,56.7,30.10,SW,222,1.0,16.0,65,0.00,,,0.00,Wunderground v.1.15,2013-06-06 03:05:00,
2013-06-05 23:10:00,68.9,56.6,30.10,SSW,202,0.0,16.0,65,0.00,,,0.00,Wunderground v.1.15,2013-06-06 03:10:00,
2013-06-05 23:15:00,68.7,56.5,30.10,SSW,213,1.0,16.0,65,0.00,,,0.00,Wunderground v.1.15,2013-06-06 03:15:00,
2013-06-05 23:20:00,68.6,56.8,30.10,SSW,202,1.0,1.0,66,0.00,,,0.00,Wunderground v.1.15,2013-06-06 03:20:00,
2013-06-05 23:30:00,68.3,56.5,30.11,SSW,196,0.0,16.0,66,0.00,,,0.00,Wunderground v.1.15,2013-06-06 03:30:00,
2013-06-05 23:35:00,68.1,56.7,30.10,NE,46,0.0,16.0,67,0.00,,,0.00,Wunderground v.1.15,2013-06-06 03:35:00,
2013-06-05 23:40:00,67.9,56.5,30.10,NE,50,0.0,16.0,67,0.00,,,0.00,Wunderground v.1.15,2013-06-06 03:40:00,
2013-06-05 23:45:00,67.7,56.3,30.10,SE,129,0.0,16.0,67,0.00,,,0.00,Wunderground v.1.15,2013-06-06 03:45:00,
2013-06-05 23:50:00,67.6,56.2,30.10,ENE,67,1.0,16.0,67,0.00,,,0.00,Wunderground v.1.15,2013-06-06 03:50:00,